Location: Middlebury College Observatory
(44.0123°N, 73.1804°W)
Time: 10:17:38
(UTC-05:00)

N. Korean satellite - Visible Passes

Search period start: 21 November 2017 00:00
Search period end: 01 December 2017 00:00
Orbit: 460 x 514 km, 97.2° (Epoch: 20 November)

Date Brightness Start Highest point End Pass type
(mag) Time Alt. Az. Time Alt. Az. Time Alt. Az.
21 Nov 10.5 05:29:41 10° E 05:30:02 10° E 05:30:23 10° E visible
21 Nov 6.5 17:37:41 10° SSE 17:41:09 61° ENE 17:44:42 10° N visible
22 Nov 7.3 17:14:38 10° SE 17:17:46 30° ENE 17:20:58 10° N visible
22 Nov 9.5 18:49:01 10° SW 18:51:22 17° W 18:53:46 10° NW visible
23 Nov 8.6 06:13:27 10° NNE 06:16:55 35° E 06:20:23 10° SSE visible
23 Nov 8.1 16:52:06 10° ESE 16:54:28 17° ENE 16:56:51 10° NNE visible
23 Nov 8.4 18:24:33 10° SSW 18:27:44 32° W 18:31:00 10° NNW visible
24 Nov 9.8 05:50:35 10° NE 05:53:19 19° E 05:56:02 10° SE visible
24 Nov 6.9 18:00:40 10° S 18:04:10 65° W 18:07:46 10° NNW visible
25 Nov 10.5 05:29:12 10° E 05:29:37 10° E 05:30:02 10° E visible
25 Nov 6.5 17:37:13 10° SSE 17:40:42 61° ENE 17:44:17 10° N visible
26 Nov 7.3 17:14:08 10° SE 17:17:18 31° ENE 17:20:32 10° N visible
26 Nov 9.5 18:48:29 10° SW 18:50:54 17° W 18:53:21 10° NW visible
27 Nov 8.6 06:13:00 10° NNE 06:16:28 34° E 06:19:56 10° SSE visible
27 Nov 8.1 16:51:34 10° ESE 16:53:59 17° ENE 16:56:25 10° NNE visible
27 Nov 8.4 18:24:01 10° SSW 18:27:15 32° W 18:30:33 10° NNW visible
28 Nov 9.8 05:50:07 10° NE 05:52:51 19° E 05:55:34 10° SE visible
28 Nov 6.9 18:00:08 10° S 18:03:41 66° W 18:07:18 10° NNW visible
29 Nov 10.5 05:28:47 10° E 05:29:08 10° E 05:29:29 10° E visible
29 Nov 6.5 17:36:39 10° SSE 17:40:11 61° ENE 17:43:48 10° N visible
30 Nov 7.3 17:13:35 10° SE 17:16:46 31° ENE 17:20:02 10° N visible
30 Nov 9.5 18:47:53 10° SW 18:50:22 18° W 18:52:53 10° NW visible
